Time,TemperatureF,DewpointF,PressureIn,WindDirection,WindDirectionDegrees,WindSpeedMPH,WindSpeedGustMPH,Humidity,HourlyPrecipIn,Conditions,Clouds,dailyrainin,SoftwareType,DateUTC
2013-03-01 00:00:00,57.3,47.0,30.21,NW,315,0.0,0.0,68,0.00,,,0.00,WUHU21623XXSP,2013-03-01 05:00:00,
2013-03-01 00:05:00,57.5,47.2,30.21,WNW,292,0.0,0.0,68,0.00,,,0.00,WUHU21623XXSP,2013-03-01 05:05:00,
2013-03-01 00:06:00,57.5,47.2,30.21,NW,315,0.0,0.0,68,0.00,,,0.00,WUHU21623XXSP,2013-03-01 05:06:00,
2013-03-01 00:11:00,57.5,47.2,30.21,WNW,292,0.0,0.0,68,0.00,,,0.00,WUHU21623XXSP,2013-03-01 05:11:00,
2013-03-01 00:16:00,57.6,47.2,30.21,WNW,292,0.0,0.0,68,0.00,,,0.00,WUHU21623XXSP,2013-03-01 05:16:00,
2013-03-01 00:21:00,57.5,47.2,30.21,NW,315,0.0,0.0,68,0.00,,,0.00,WUHU21623XXSP,2013-03-01 05:21:00,
2013-03-01 00:26:00,57.5,47.2,30.21,NW,315,0.0,0.0,68,0.00,,,0.00,WUHU21623XXSP,2013-03-01 05:26:00,
2013-03-01 00:31:00,57.3,47.0,30.21,WNW,292,0.0,0.0,68,0.00,,,0.00,WUHU21623XXSP,2013-03-01 05:31:00,
2013-03-01 00:36:00,57.1,47.2,30.21,WNW,292,0.0,0.0,69,0.00,,,0.00,WUHU21623XXSP,2013-03-01 05:36:00,
2013-03-01 00:41:00,56.9,47.0,30.21,WNW,292,0.0,0.0,69,0.00,,,0.00,WUHU21623XXSP,2013-03-01 05:41:00,
2013-03-01 00:46:00,56.9,47.0,30.21,WNW,292,0.0,0.0,69,0.00,,,0.00,WUHU21623XXSP,2013-03-01 05:46:00,
2013-03-01 00:51:00,56.9,47.3,30.20,NNW,337,0.0,0.0,70,0.00,,,0.00,WUHU21623XXSP,2013-03-01 05:51:00,
2013-03-01 00:56:00,56.9,47.3,30.21,WNW,292,0.0,0.0,70,0.00,,,0.00,WUHU21623XXSP,2013-03-01 05:56:00,
2013-03-01 01:01:00,56.9,47.3,30.21,NW,315,0.0,0.0,70,0.00,,,0.00,WUHU21623XXSP,2013-03-01 06:01:00,
2013-03-01 01:07:00,56.9,47.3,30.21,NW,315,0.0,0.0,70,0.00,,,0.00,WUHU21623XXSP,2013-03-01 06:07:00,
2013-03-01 01:12:00,57.3,47.7,30.22,NW,315,0.0,0.0,70,0.00,,,0.00,WUHU21623XXSP,2013-03-01 06:12:00,
2013-03-01 01:17:00,57.3,47.7,30.21,WNW,292,0.0,0.0,70,0.00,,,0.00,WUHU21623XXSP,2013-03-01 06:17:00,
2013-03-01 01:22:00,57.5,47.5,30.21,NW,315,0.0,0.0,69,0.00,,,0.00,WUHU21623XXSP,2013-03-01 06:22:00,
2013-03-01 01:27:00,57.6,47.6,30.21,NW,315,0.0,0.0,69,0.00,,,0.00,WUHU21623XXSP,2013-03-01 06:27:00,
2013-03-01 01:32:00,57.6,48.0,30.21,West,270,0.0,0.0,70,0.00,,,0.00,WUHU21623XXSP,2013-03-01 06:32:00,
2013-03-01 01:37:00,57.8,48.2,30.20,North,0,0.0,0.0,70,0.00,,,0.00,WUHU21623XXSP,2013-03-01 06:37:00,
2013-03-01 01:42:00,57.6,48.0,30.20,NW,315,0.0,0.0,70,0.00,,,0.00,WUHU21623XXSP,2013-03-01 06:42:00,
2013-03-01 01:47:00,57.6,47.6,30.19,NNE,22,0.0,0.0,69,0.00,,,0.00,WUHU21623XXSP,2013-03-01 06:47:00,
2013-03-01 01:52:00,57.6,47.6,30.19,NW,315,0.0,0.0,69,0.00,,,0.00,WUHU21623XXSP,2013-03-01 06:52:00,
2013-03-01 01:57:00,57.6,47.6,30.19,NW,315,0.0,0.0,69,0.00,,,0.00,WUHU21623XXSP,2013-03-01 06:57:00,
2013-03-01 02:02:00,57.6,47.6,30.19,NW,315,0.0,0.0,69,0.00,,,0.00,WUHU21623XXSP,2013-03-01 07:02:00,
2013-03-01 02:07:00,57.5,47.5,30.19,NNW,337,0.0,0.0,69,0.00,,,0.00,WUHU21623XXSP,2013-03-01 07:07:00,
2013-03-01 02:12:00,57.3,47.3,30.19,West,270,0.0,0.0,69,0.00,,,0.00,WUHU21623XXSP,2013-03-01 07:12:00,
2013-03-01 02:17:00,57.3,47.3,30.19,NW,315,0.0,0.0,69,0.00,,,0.00,WUHU21623XXSP,2013-03-01 07:17:00,
2013-03-01 02:22:00,57.3,47.3,30.19,WNW,292,0.0,0.0,69,0.00,,,0.00,WUHU21623XXSP,2013-03-01 07:22:00,
2013-03-01 02:27:00,57.3,47.3,30.19,NW,315,0.0,0.0,69,0.00,,,0.00,WUHU21623XXSP,2013-03-01 07:27:00,
2013-03-01 02:32:00,57.3,47.3,30.19,NW,315,0.0,0.0,69,0.00,,,0.00,WUHU21623XXSP,2013-03-01 07:32:00,
2013-03-01 02:37:00,57.3,47.3,30.19,West,270,0.0,0.0,69,0.00,,,0.00,WUHU21623XXSP,2013-03-01 07:37:00,
2013-03-01 02:42:00,57.3,47.3,30.19,WNW,292,0.0,0.0,69,0.00,,,0.00,WUHU21623XXSP,2013-03-01 07:42:00,
2013-03-01 02:47:00,57.1,47.2,30.19,NNW,337,0.0,0.0,69,0.00,,,0.00,WUHU21623XXSP,2013-03-01 07:47:00,
2013-03-01 02:52:00,57.1,47.2,30.19,NW,315,0.0,0.0,69,0.00,,,0.00,WUHU21623XXSP,2013-03-01 07:52:00,
2013-03-01 02:57:00,56.9,47.3,30.19,WNW,292,0.0,0.0,70,0.00,,,0.00,WUHU21623XXSP,2013-03-01 07:57:00,
2013-03-01 03:02:00,56.9,47.3,30.19,WNW,292,0.0,0.0,70,0.00,,,0.00,WUHU21623XXSP,2013-03-01 08:02:00,
2013-03-01 03:07:00,56.9,47.3,30.18,WNW,292,0.0,0.0,70,0.00,,,0.00,WUHU21623XXSP,2013-03-01 08:07:00,
2013-03-01 03:12:00,56.7,47.1,30.19,NW,315,0.0,0.0,70,0.00,,,0.00,WUHU21623XXSP,2013-03-01 08:12:00,
2013-03-01 03:17:00,56.7,47.1,30.19,WNW,292,0.0,0.0,70,0.00,,,0.00,WUHU21623XXSP,2013-03-01 08:17:00,
2013-03-01 03:22:00,56.6,47.4,30.19,WNW,292,0.0,0.0,71,0.00,,,0.00,WUHU21623XXSP,2013-03-01 08:22:00,
2013-03-01 03:28:00,56.4,47.2,30.18,WNW,292,0.0,0.0,71,0.00,,,0.00,WUHU21623XXSP,2013-03-01 08:28:00,
2013-03-01 03:33:00,56.4,47.2,30.18,WNW,292,0.0,0.0,71,0.00,,,0.00,WUHU21623XXSP,2013-03-01 08:33:00,
2013-03-01 03:38:00,56.4,47.2,30.18,WNW,292,0.0,0.0,71,0.00,,,0.00,WUHU21623XXSP,2013-03-01 08:38:00,
2013-03-01 03:43:00,56.0,47.2,30.18,NW,315,0.0,0.0,72,0.00,,,0.00,WUHU21623XXSP,2013-03-01 08:43:00,
2013-03-01 03:48:00,56.0,47.2,30.18,WNW,292,0.0,0.0,72,0.00,,,0.00,WUHU21623XXSP,2013-03-01 08:48:00,
2013-03-01 03:53:00,56.0,47.2,30.18,WNW,292,0.0,0.0,72,0.00,,,0.00,WUHU21623XXSP,2013-03-01 08:53:00,
2013-03-01 03:58:00,56.0,47.2,30.18,WNW,292,0.0,0.0,72,0.00,,,0.00,WUHU21623XXSP,2013-03-01 08:58:00,
2013-03-01 04:03:00,55.8,47.4,30.18,WNW,292,0.0,0.0,73,0.00,,,0.00,WUHU21623XXSP,2013-03-01 09:03:00,
2013-03-01 04:08:00,55.8,47.4,30.18,WNW,292,0.0,0.0,73,0.00,,,0.00,WUHU21623XXSP,2013-03-01 09:08:00,
2013-03-01 04:13:00,55.5,47.1,30.18,WNW,292,0.0,0.0,73,0.00,,,0.00,WUHU21623XXSP,2013-03-01 09:13:00,
2013-03-01 04:18:00,55.3,46.9,30.18,North,0,0.0,0.0,73,0.00,,,0.00,WUHU21623XXSP,2013-03-01 09:18:00,
2013-03-01 04:23:00,55.3,46.9,30.18,North,0,0.0,0.0,73,0.00,,,0.00,WUHU21623XXSP,2013-03-01 09:23:00,
2013-03-01 04:28:00,55.3,46.9,30.19,North,0,0.0,0.0,73,0.00,,,0.00,WUHU21623XXSP,2013-03-01 09:28:00,
2013-03-01 04:33:00,55.1,47.1,30.18,North,0,0.0,0.0,74,0.00,,,0.00,WUHU21623XXSP,2013-03-01 09:33:00,
2013-03-01 04:38:00,55.1,47.1,30.18,North,0,0.0,0.0,74,0.00,,,0.00,WUHU21623XXSP,2013-03-01 09:38:00,
2013-03-01 04:43:00,54.9,46.9,30.18,North,0,0.0,0.0,74,0.00,,,0.00,WUHU21623XXSP,2013-03-01 09:43:00,
2013-03-01 04:48:00,54.9,46.9,30.17,North,0,0.0,0.0,74,0.00,,,0.00,WUHU21623XXSP,2013-03-01 09:48:00,
2013-03-01 04:53:00,54.9,47.2,30.18,North,0,0.0,0.0,75,0.00,,,0.00,WUHU21623XXSP,2013-03-01 09:53:00,
2013-03-01 04:58:00,55.1,47.4,30.18,North,0,0.0,0.0,75,0.00,,,0.00,WUHU21623XXSP,2013-03-01 09:58:00,
2013-03-01 05:03:00,55.1,47.1,30.18,North,0,0.0,0.0,74,0.00,,,0.00,WUHU21623XXSP,2013-03-01 10:03:00,
2013-03-01 05:08:00,55.1,47.1,30.19,North,0,0.0,0.0,74,0.00,,,0.00,WUHU21623XXSP,2013-03-01 10:08:00,
2013-03-01 05:13:00,55.1,47.1,30.19,North,0,0.0,0.0,74,0.00,,,0.00,WUHU21623XXSP,2013-03-01 10:13:00,
2013-03-01 05:18:00,55.1,47.1,30.19,North,0,0.0,0.0,74,0.00,,,0.00,WUHU21623XXSP,2013-03-01 10:18:00,
2013-03-01 05:23:00,55.1,47.1,30.19,NNE,22,0.0,0.0,74,0.00,,,0.00,WUHU21623XXSP,2013-03-01 10:23:00,
2013-03-01 05:28:00,55.3,46.9,30.20,NNE,22,0.0,0.0,73,0.00,,,0.00,WUHU21623XXSP,2013-03-01 10:28:00,
2013-03-01 05:33:00,55.3,46.9,30.20,ENE,67,0.0,0.0,73,0.00,,,0.00,WUHU21623XXSP,2013-03-01 10:33:00,
2013-03-01 05:38:00,55.1,46.3,30.20,NNE,22,0.0,0.0,72,0.00,,,0.00,WUHU21623XXSP,2013-03-01 10:38:00,
2013-03-01 05:43:00,54.9,45.8,30.20,North,0,0.0,0.0,71,0.00,,,0.00,WUHU21623XXSP,2013-03-01 10:43:00,
2013-03-01 05:48:00,54.6,45.5,30.21,North,0,0.0,0.0,71,0.00,,,0.00,WUHU21623XXSP,2013-03-01 10:48:00,
2013-03-01 05:53:00,54.4,44.9,30.21,NNE,22,0.0,0.0,70,0.00,,,0.00,WUHU21623XXSP,2013-03-01 10:53:00,
2013-03-01 05:58:00,54.2,44.7,30.21,North,0,0.0,0.0,70,0.00,,,0.00,WUHU21623XXSP,2013-03-01 10:58:00,
2013-03-01 06:03:00,54.0,44.6,30.21,NNE,22,0.0,0.0,70,0.00,,,0.00,WUHU21623XXSP,2013-03-01 11:03:00,
2013-03-01 06:08:00,53.7,43.9,30.22,NNW,337,0.0,0.0,69,0.00,,,0.00,WUHU21623XXSP,2013-03-01 11:08:00,
2013-03-01 06:13:00,53.5,43.7,30.22,North,0,0.0,0.0,69,0.00,,,0.00,WUHU21623XXSP,2013-03-01 11:13:00,
2013-03-01 06:18:00,53.3,43.5,30.22,NE,45,0.0,0.0,69,0.00,,,0.00,WUHU21623XXSP,2013-03-01 11:18:00,
2013-03-01 06:24:00,53.1,43.3,30.22,ENE,67,0.0,0.0,69,0.00,,,0.00,WUHU21623XXSP,2013-03-01 11:24:00,
2013-03-01 06:29:00,53.0,42.8,30.22,NNE,22,0.0,0.0,68,0.00,,,0.00,WUHU21623XXSP,2013-03-01 11:29:00,
2013-03-01 06:34:00,52.8,42.6,30.22,NNE,22,0.0,0.0,68,0.00,,,0.00,WUHU21623XXSP,2013-03-01 11:34:00,
2013-03-01 06:39:00,52.4,42.3,30.22,NE,45,0.0,0.0,68,0.00,,,0.00,WUHU21623XXSP,2013-03-01 11:39:00,
2013-03-01 06:44:00,52.4,42.3,30.22,North,0,0.0,0.0,68,0.00,,,0.00,WUHU21623XXSP,2013-03-01 11:44:00,
2013-03-01 06:49:00,52.2,41.7,30.22,NNE,22,0.0,0.0,67,0.00,,,0.00,WUHU21623XXSP,2013-03-01 11:49:00,
2013-03-01 06:54:00,52.2,41.7,30.23,NNE,22,0.0,0.0,67,0.00,,,0.00,WUHU21623XXSP,2013-03-01 11:54:00,
2013-03-01 06:59:00,51.9,41.4,30.23,NNE,22,0.0,0.0,67,0.00,,,0.00,WUHU21623XXSP,2013-03-01 11:59:00,
2013-03-01 07:04:00,51.9,41.0,30.23,NNE,22,0.0,0.0,66,0.00,,,0.00,WUHU21623XXSP,2013-03-01 12:04:00,
2013-03-01 07:09:00,51.7,40.8,30.23,NNE,22,0.0,0.0,66,0.00,,,0.00,WUHU21623XXSP,2013-03-01 12:09:00,
2013-03-01 07:14:00,51.5,40.6,30.23,NNE,22,0.0,0.0,66,0.00,,,0.00,WUHU21623XXSP,2013-03-01 12:14:00,
2013-03-01 07:19:00,51.5,40.6,30.23,NNE,22,0.0,0.0,66,0.00,,,0.00,WUHU21623XXSP,2013-03-01 12:19:00,
2013-03-01 07:24:00,51.5,40.6,30.23,NNE,22,0.0,0.0,66,0.00,,,0.00,WUHU21623XXSP,2013-03-01 12:24:00,
2013-03-01 07:29:00,51.5,40.6,30.23,NE,45,0.0,0.0,66,0.00,,,0.00,WUHU21623XXSP,2013-03-01 12:29:00,
2013-03-01 07:34:00,51.5,40.2,30.24,North,0,0.0,0.0,65,0.00,,,0.00,WUHU21623XXSP,2013-03-01 12:34:00,
2013-03-01 07:39:00,51.9,40.6,30.24,NNE,22,0.0,0.0,65,0.00,,,0.00,WUHU21623XXSP,2013-03-01 12:39:00,
2013-03-01 07:44:00,51.9,40.6,30.24,NNE,22,0.0,0.0,65,0.00,,,0.00,WUHU21623XXSP,2013-03-01 12:44:00,
2013-03-01 07:49:00,52.2,40.5,30.24,East,90,0.0,0.0,64,0.00,,,0.00,WUHU21623XXSP,2013-03-01 12:49:00,
2013-03-01 07:54:00,52.4,40.7,30.25,NE,45,0.0,0.0,64,0.00,,,0.00,WUHU21623XXSP,2013-03-01 12:54:00,
2013-03-01 07:59:00,53.1,40.5,30.25,NNE,22,0.0,0.0,62,0.00,,,0.00,WUHU21623XXSP,2013-03-01 12:59:00,
2013-03-01 08:04:00,53.9,40.4,30.25,North,0,0.0,0.0,60,0.00,,,0.00,WUHU21623XXSP,2013-03-01 13:04:00,
2013-03-01 08:09:00,54.0,40.1,30.25,NNE,22,0.0,0.0,59,0.00,,,0.00,WUHU21623XXSP,2013-03-01 13:09:00,
2013-03-01 08:14:00,54.4,40.0,30.26,North,0,0.0,0.0,58,0.00,,,0.00,WUHU21623XXSP,2013-03-01 13:14:00,
2013-03-01 08:19:00,54.6,40.2,30.26,NE,45,0.0,0.0,58,0.00,,,0.00,WUHU21623XXSP,2013-03-01 13:19:00,
2013-03-01 08:24:00,54.8,39.9,30.25,NNE,22,0.0,0.0,57,0.00,,,0.00,WUHU21623XXSP,2013-03-01 13:24:00,
2013-03-01 08:29:00,54.9,40.0,30.25,NNE,22,0.0,0.0,57,0.00,,,0.00,WUHU21623XXSP,2013-03-01 13:29:00,
2013-03-01 08:34:00,55.1,39.8,30.26,ENE,67,0.0,0.0,56,0.00,,,0.00,WUHU21623XXSP,2013-03-01 13:34:00,
2013-03-01 08:39:00,55.5,39.7,30.26,NE,45,0.0,0.0,55,0.00,,,0.00,WUHU21623XXSP,2013-03-01 13:39:00,
2013-03-01 08:44:00,55.8,39.5,30.27,NE,45,0.0,0.0,54,0.00,,,0.00,WUHU21623XXSP,2013-03-01 13:44:00,
2013-03-01 08:49:00,56.0,39.6,30.26,ENE,67,0.0,0.0,54,0.00,,,0.00,WUHU21623XXSP,2013-03-01 13:49:00,
2013-03-01 08:54:00,56.6,40.2,30.26,NNE,22,0.0,0.0,54,0.00,,,0.00,WUHU21623XXSP,2013-03-01 13:54:00,
2013-03-01 08:59:00,56.6,39.7,30.26,North,0,0.0,0.0,53,0.00,,,0.00,WUHU21623XXSP,2013-03-01 13:59:00,
2013-03-01 09:04:00,56.6,39.7,30.27,North,0,0.0,0.0,53,0.00,,,0.00,WUHU21623XXSP,2013-03-01 14:04:00,
2013-03-01 09:09:00,56.6,40.2,30.27,North,0,0.0,0.0,54,0.00,,,0.00,WUHU21623XXSP,2013-03-01 14:09:00,
2013-03-01 09:14:00,56.6,40.2,30.26,North,0,0.0,0.0,54,0.00,,,0.00,WUHU21623XXSP,2013-03-01 14:14:00,
2013-03-01 09:19:00,56.6,40.7,30.27,NNE,22,0.0,0.0,55,0.00,,,0.00,WUHU21623XXSP,2013-03-01 14:19:00,
2013-03-01 09:24:00,56.7,41.3,30.27,North,0,0.0,0.0,56,0.00,,,0.00,WUHU21623XXSP,2013-03-01 14:24:00,
2013-03-01 09:29:00,56.9,41.0,30.26,NNE,22,0.0,0.0,55,0.00,,,0.00,WUHU21623XXSP,2013-03-01 14:29:00,
2013-03-01 09:34:00,56.9,41.4,30.26,NE,45,0.0,0.0,56,0.00,,,0.00,WUHU21623XXSP,2013-03-01 14:34:00,
2013-03-01 09:39:00,57.1,41.6,30.27,NNE,22,0.0,0.0,56,0.00,,,0.00,WUHU21623XXSP,2013-03-01 14:39:00,
2013-03-01 09:44:00,57.1,41.6,30.26,NE,45,0.0,0.0,56,0.00,,,0.00,WUHU21623XXSP,2013-03-01 14:44:00,
2013-03-01 09:49:00,57.1,41.6,30.27,NNE,22,0.0,0.0,56,0.00,,,0.00,WUHU21623XXSP,2013-03-01 14:49:00,
2013-03-01 09:54:00,57.3,42.3,30.27,North,0,0.0,0.0,57,0.00,,,0.00,WUHU21623XXSP,2013-03-01 14:54:00,
2013-03-01 09:59:00,57.6,42.1,30.27,NNE,22,0.0,0.0,56,0.00,,,0.00,WUHU21623XXSP,2013-03-01 14:59:00,
2013-03-01 10:04:00,57.8,42.8,30.27,NNW,337,0.0,0.0,57,0.00,,,0.00,WUHU21623XXSP,2013-03-01 15:04:00,
2013-03-01 10:09:00,57.8,42.8,30.28,NNE,22,0.0,0.0,57,0.00,,,0.00,WUHU21623XXSP,2013-03-01 15:09:00,
2013-03-01 10:14:00,57.8,42.8,30.27,NW,315,0.0,0.0,57,0.00,,,0.00,WUHU21623XXSP,2013-03-01 15:14:00,
2013-03-01 10:19:00,58.7,43.1,30.28,NNE,22,0.0,0.0,56,0.00,,,0.00,WUHU21623XXSP,2013-03-01 15:19:00,
2013-03-01 10:24:00,59.3,43.7,30.28,NNE,22,0.0,0.0,56,0.00,,,0.00,WUHU21623XXSP,2013-03-01 15:24:00,
2013-03-01 10:29:00,60.0,43.9,30.27,North,0,0.0,0.0,55,0.00,,,0.00,WUHU21623XXSP,2013-03-01 15:29:00,
2013-03-01 10:34:00,60.5,43.8,30.27,NE,45,0.0,0.0,54,0.00,,,0.00,WUHU21623XXSP,2013-03-01 15:34:00,
2013-03-01 10:39:00,60.5,43.8,30.27,NNE,22,0.0,0.0,54,0.00,,,0.00,WUHU21623XXSP,2013-03-01 15:39:00,
2013-03-01 10:44:00,60.3,44.1,30.27,NNE,22,0.0,0.0,55,0.00,,,0.00,WUHU21623XXSP,2013-03-01 15:44:00,
2013-03-01 10:49:00,60.5,43.8,30.27,North,0,0.0,0.0,54,0.00,,,0.00,WUHU21623XXSP,2013-03-01 15:49:00,
2013-03-01 10:54:00,61.1,44.9,30.27,NW,315,0.0,0.0,55,0.00,,,0.00,WUHU21623XXSP,2013-03-01 15:54:00,
2013-03-01 10:59:00,61.6,44.9,30.27,North,0,0.0,0.0,54,0.00,,,0.00,WUHU21623XXSP,2013-03-01 15:59:00,
2013-03-01 11:04:00,62.1,45.3,30.27,NNW,337,0.0,0.0,54,0.00,,,0.00,WUHU21623XXSP,2013-03-01 16:04:00,
2013-03-01 11:09:00,61.8,45.1,30.27,NNW,337,0.0,0.0,54,0.00,,,0.00,WUHU21623XXSP,2013-03-01 16:09:00,
2013-03-01 11:14:00,61.4,44.7,30.27,NNE,22,0.0,0.0,54,0.00,,,0.00,WUHU21623XXSP,2013-03-01 16:14:00,
2013-03-01 11:19:00,61.1,44.9,30.27,NW,315,0.0,0.0,55,0.00,,,0.00,WUHU21623XXSP,2013-03-01 16:19:00,
2013-03-01 11:24:00,60.9,44.7,30.27,NNW,337,0.0,0.0,55,0.00,,,0.00,WUHU21623XXSP,2013-03-01 16:24:00,
2013-03-01 11:29:00,61.1,44.9,30.27,NNW,337,0.0,0.0,55,0.00,,,0.00,WUHU21623XXSP,2013-03-01 16:29:00,
2013-03-01 11:34:00,61.2,45.5,30.27,NNW,337,0.0,0.0,56,0.00,,,0.00,WUHU21623XXSP,2013-03-01 16:34:00,
2013-03-01 11:39:00,61.4,45.2,30.27,West,270,0.0,0.0,55,0.00,,,0.00,WUHU21623XXSP,2013-03-01 16:39:00,
2013-03-01 11:44:00,62.0,45.2,30.27,NNW,337,0.0,0.0,54,0.00,,,0.00,WUHU21623XXSP,2013-03-01 16:44:00,
2013-03-01 11:49:00,62.0,45.2,30.27,NNW,337,0.0,0.0,54,0.00,,,0.00,WUHU21623XXSP,2013-03-01 16:49:00,
2013-03-01 11:54:00,61.4,44.7,30.26,NW,315,0.0,0.0,54,0.00,,,0.00,WUHU21623XXSP,2013-03-01 16:54:00,
2013-03-01 12:00:00,61.2,45.0,30.26,NNW,337,0.0,0.0,55,0.00,,,0.00,WUHU21623XXSP,2013-03-01 17:00:00,
2013-03-01 12:05:00,61.2,45.0,30.25,WNW,292,0.0,0.0,55,0.00,,,0.00,WUHU21623XXSP,2013-03-01 17:05:00,
2013-03-01 12:10:00,61.6,45.8,30.25,North,0,0.0,0.0,56,0.00,,,0.00,WUHU21623XXSP,2013-03-01 17:10:00,
2013-03-01 12:15:00,62.0,45.7,30.25,NE,45,0.0,0.0,55,0.00,,,0.00,WUHU21623XXSP,2013-03-01 17:15:00,
2013-03-01 12:20:00,62.1,45.8,30.25,West,270,0.0,0.0,55,0.00,,,0.00,WUHU21623XXSP,2013-03-01 17:20:00,
2013-03-01 12:25:00,62.1,45.8,30.25,WNW,292,0.0,0.0,55,0.00,,,0.00,WUHU21623XXSP,2013-03-01 17:25:00,
2013-03-01 12:30:00,62.0,45.7,30.25,NNW,337,0.0,0.0,55,0.00,,,0.00,WUHU21623XXSP,2013-03-01 17:30:00,
2013-03-01 12:35:00,62.1,45.8,30.25,NW,315,0.0,0.0,55,0.00,,,0.00,WUHU21623XXSP,2013-03-01 17:35:00,
2013-03-01 12:40:00,63.0,46.7,30.25,NW,315,0.0,0.0,55,0.00,,,0.00,WUHU21623XXSP,2013-03-01 17:40:00,
2013-03-01 12:45:00,63.0,46.2,30.24,NW,315,0.0,0.0,54,0.00,,,0.00,WUHU21623XXSP,2013-03-01 17:45:00,
2013-03-01 12:50:00,62.5,45.7,30.24,NNE,22,0.0,0.0,54,0.00,,,0.00,WUHU21623XXSP,2013-03-01 17:50:00,
2013-03-01 12:55:00,62.3,46.0,30.24,NW,315,0.0,0.0,55,0.00,,,0.00,WUHU21623XXSP,2013-03-01 17:55:00,
2013-03-01 13:00:00,62.5,45.7,30.24,NNW,337,0.0,0.0,54,0.00,,,0.00,WUHU21623XXSP,2013-03-01 18:00:00,
2013-03-01 13:05:00,62.1,45.3,30.23,NNE,22,0.0,0.0,54,0.00,,,0.00,WUHU21623XXSP,2013-03-01 18:05:00,
2013-03-01 13:10:00,61.8,45.1,30.24,NW,315,0.0,0.0,54,0.00,,,0.00,WUHU21623XXSP,2013-03-01 18:10:00,
2013-03-01 13:15:00,61.8,45.5,30.23,WNW,292,0.0,0.0,55,0.00,,,0.00,WUHU21623XXSP,2013-03-01 18:15:00,
2013-03-01 13:20:00,62.1,45.8,30.22,North,0,0.0,0.0,55,0.00,,,0.00,WUHU21623XXSP,2013-03-01 18:20:00,
2013-03-01 13:25:00,62.1,45.8,30.22,North,0,0.0,0.0,55,0.00,,,0.00,WUHU21623XXSP,2013-03-01 18:25:00,
2013-03-01 13:30:00,62.3,46.0,30.22,NNW,337,0.0,0.0,55,0.00,,,0.00,WUHU21623XXSP,2013-03-01 18:30:00,
2013-03-01 13:35:00,62.1,45.8,30.22,NNW,337,0.0,0.0,55,0.00,,,0.00,WUHU21623XXSP,2013-03-01 18:35:00,
2013-03-01 13:40:00,62.3,46.0,30.22,WNW,292,0.0,0.0,55,0.00,,,0.00,WUHU21623XXSP,2013-03-01 18:40:00,
2013-03-01 13:45:00,62.3,46.0,30.22,NW,315,0.0,0.0,55,0.00,,,0.00,WUHU21623XXSP,2013-03-01 18:45:00,
2013-03-01 13:50:00,62.1,45.3,30.22,NNE,22,0.0,0.0,54,0.00,,,0.00,WUHU21623XXSP,2013-03-01 18:50:00,
2013-03-01 13:55:00,62.1,45.8,30.22,WNW,292,0.0,0.0,55,0.00,,,0.00,WUHU21623XXSP,2013-03-01 18:55:00,
2013-03-01 14:00:00,62.1,45.8,30.22,NW,315,0.0,0.0,55,0.00,,,0.00,WUHU21623XXSP,2013-03-01 19:00:00,
2013-03-01 14:05:00,62.0,45.2,30.22,NW,315,0.0,0.0,54,0.00,,,0.00,WUHU21623XXSP,2013-03-01 19:05:00,
2013-03-01 14:10:00,61.8,45.5,30.22,NNW,337,0.0,0.0,55,0.00,,,0.00,WUHU21623XXSP,2013-03-01 19:10:00,
2013-03-01 14:15:00,61.8,45.1,30.22,NNE,22,0.0,0.0,54,0.00,,,0.00,WUHU21623XXSP,2013-03-01 19:15:00,
2013-03-01 14:20:00,61.4,45.2,30.22,NNW,337,0.0,0.0,55,0.00,,,0.00,WUHU21623XXSP,2013-03-01 19:20:00,
2013-03-01 14:25:00,61.4,45.2,30.22,NNW,337,0.0,0.0,55,0.00,,,0.00,WUHU21623XXSP,2013-03-01 19:25:00,
2013-03-01 14:30:00,61.4,45.2,30.22,NW,315,0.0,0.0,55,0.00,,,0.00,WUHU21623XXSP,2013-03-01 19:30:00,
2013-03-01 14:35:00,61.8,45.5,30.22,NW,315,0.0,0.0,55,0.00,,,0.00,WUHU21623XXSP,2013-03-01 19:35:00,
2013-03-01 14:40:00,62.1,45.8,30.22,NNW,337,0.0,0.0,55,0.00,,,0.00,WUHU21623XXSP,2013-03-01 19:40:00,
2013-03-01 14:45:00,62.3,45.0,30.22,NNW,337,0.0,0.0,53,0.00,,,0.00,WUHU21623XXSP,2013-03-01 19:45:00,
2013-03-01 14:50:00,62.7,45.9,30.22,NNW,337,0.0,0.0,54,0.00,,,0.00,WUHU21623XXSP,2013-03-01 19:50:00,
2013-03-01 14:55:00,62.7,45.4,30.22,North,0,0.0,0.0,53,0.00,,,0.00,WUHU21623XXSP,2013-03-01 19:55:00,
2013-03-01 15:00:00,62.7,45.9,30.22,NNW,337,0.0,0.0,54,0.00,,,0.00,WUHU21623XXSP,2013-03-01 20:00:00,
2013-03-01 15:05:00,62.5,45.2,30.22,NW,315,0.0,0.0,53,0.00,,,0.00,WUHU21623XXSP,2013-03-01 20:05:00,
2013-03-01 15:10:00,62.1,44.8,30.23,WNW,292,0.0,0.0,53,0.00,,,0.00,WUHU21623XXSP,2013-03-01 20:10:00,
2013-03-01 15:15:00,62.1,44.8,30.23,NW,315,0.0,0.0,53,0.00,,,0.00,WUHU21623XXSP,2013-03-01 20:15:00,
2013-03-01 15:20:00,62.3,45.0,30.23,NW,315,0.0,0.0,53,0.00,,,0.00,WUHU21623XXSP,2013-03-01 20:20:00,
2013-03-01 15:25:00,62.7,45.4,30.23,West,270,0.0,0.0,53,0.00,,,0.00,WUHU21623XXSP,2013-03-01 20:25:00,
2013-03-01 15:30:00,62.1,44.8,30.23,NNW,337,0.0,0.0,53,0.00,,,0.00,WUHU21623XXSP,2013-03-01 20:30:00,
2013-03-01 15:35:00,62.0,45.2,30.23,North,0,0.0,0.0,54,0.00,,,0.00,WUHU21623XXSP,2013-03-01 20:35:00,
2013-03-01 15:40:00,61.8,45.1,30.23,WSW,247,0.0,0.0,54,0.00,,,0.00,WUHU21623XXSP,2013-03-01 20:40:00,
2013-03-01 15:46:00,61.4,44.7,30.23,WNW,292,0.0,0.0,54,0.00,,,0.00,WUHU21623XXSP,2013-03-01 20:46:00,
2013-03-01 15:51:00,61.2,44.5,30.23,NW,315,0.0,0.0,54,0.00,,,0.00,WUHU21623XXSP,2013-03-01 20:51:00,
2013-03-01 15:56:00,60.5,44.3,30.22,NW,315,0.0,0.0,55,0.00,,,0.00,WUHU21623XXSP,2013-03-01 20:56:00,
2013-03-01 16:01:00,60.3,44.1,30.23,North,0,0.0,0.0,55,0.00,,,0.00,WUHU21623XXSP,2013-03-01 21:01:00,
2013-03-01 16:06:00,60.0,44.3,30.22,North,0,0.0,0.0,56,0.00,,,0.00,WUHU21623XXSP,2013-03-01 21:06:00,
2013-03-01 16:11:00,59.8,44.2,30.23,West,270,0.0,0.0,56,0.00,,,0.00,WUHU21623XXSP,2013-03-01 21:11:00,
2013-03-01 16:16:00,59.6,44.0,30.22,West,270,0.0,0.0,56,0.00,,,0.00,WUHU21623XXSP,2013-03-01 21:16:00,
2013-03-01 16:21:00,59.3,43.7,30.22,NNW,337,0.0,0.0,56,0.00,,,0.00,WUHU21623XXSP,2013-03-01 21:21:00,
2013-03-01 16:26:00,59.1,44.0,30.22,WNW,292,0.0,0.0,57,0.00,,,0.00,WUHU21623XXSP,2013-03-01 21:26:00,
2013-03-01 16:31:00,58.9,43.8,30.22,NW,315,0.0,0.0,57,0.00,,,0.00,WUHU21623XXSP,2013-03-01 21:31:00,
2013-03-01 16:36:00,58.9,44.3,30.22,NNW,337,0.0,0.0,58,0.00,,,0.00,WUHU21623XXSP,2013-03-01 21:36:00,
2013-03-01 16:41:00,58.9,44.3,30.22,WNW,292,0.0,0.0,58,0.00,,,0.00,WUHU21623XXSP,2013-03-01 21:41:00,
2013-03-01 16:46:00,58.9,44.3,30.22,NW,315,0.0,0.0,58,0.00,,,0.00,WUHU21623XXSP,2013-03-01 21:46:00,
2013-03-01 16:51:00,58.5,43.9,30.22,WNW,292,0.0,0.0,58,0.00,,,0.00,WUHU21623XXSP,2013-03-01 21:51:00,
2013-03-01 16:56:00,58.2,43.6,30.22,NW,315,0.0,0.0,58,0.00,,,0.00,WUHU21623XXSP,2013-03-01 21:56:00,
2013-03-01 17:01:00,58.4,43.3,30.23,NW,315,0.0,0.0,57,0.00,,,0.00,WUHU21623XXSP,2013-03-01 22:01:00,
2013-03-01 17:06:00,58.0,42.9,30.22,West,270,0.0,0.0,57,0.00,,,0.00,WUHU21623XXSP,2013-03-01 22:06:00,
2013-03-01 17:11:00,57.8,42.3,30.23,NW,315,0.0,0.0,56,0.00,,,0.00,WUHU21623XXSP,2013-03-01 22:11:00,
2013-03-01 17:16:00,57.8,42.3,30.22,NW,315,0.0,0.0,56,0.00,,,0.00,WUHU21623XXSP,2013-03-01 22:16:00,
2013-03-01 17:21:00,57.8,42.3,30.22,North,0,0.0,0.0,56,0.00,,,0.00,WUHU21623XXSP,2013-03-01 22:21:00,
2013-03-01 17:26:00,57.6,42.1,30.23,NW,315,0.0,0.0,56,0.00,,,0.00,WUHU21623XXSP,2013-03-01 22:26:00,
2013-03-01 17:31:00,57.6,42.1,30.23,WNW,292,0.0,0.0,56,0.00,,,0.00,WUHU21623XXSP,2013-03-01 22:31:00,
2013-03-01 17:36:00,57.5,42.0,30.22,NW,315,0.0,0.0,56,0.00,,,0.00,WUHU21623XXSP,2013-03-01 22:36:00,
2013-03-01 17:41:00,57.3,41.3,30.23,WNW,292,0.0,0.0,55,0.00,,,0.00,WUHU21623XXSP,2013-03-01 22:41:00,
2013-03-01 17:46:00,57.1,41.2,30.23,NNW,337,0.0,0.0,55,0.00,,,0.00,WUHU21623XXSP,2013-03-01 22:46:00,
2013-03-01 17:51:00,57.1,41.2,30.23,West,270,0.0,0.0,55,0.00,,,0.00,WUHU21623XXSP,2013-03-01 22:51:00,
2013-03-01 17:56:00,56.9,41.0,30.22,WNW,292,0.0,0.0,55,0.00,,,0.00,WUHU21623XXSP,2013-03-01 22:56:00,
2013-03-01 18:01:00,56.7,41.3,30.23,North,0,0.0,0.0,56,0.00,,,0.00,WUHU21623XXSP,2013-03-01 23:01:00,
2013-03-01 18:06:00,56.7,41.3,30.24,NW,315,0.0,0.0,56,0.00,,,0.00,WUHU21623XXSP,2013-03-01 23:06:00,
2013-03-01 18:11:00,56.6,41.2,30.23,NW,315,0.0,0.0,56,0.00,,,0.00,WUHU21623XXSP,2013-03-01 23:11:00,
2013-03-01 18:16:00,56.4,41.4,30.23,WNW,292,0.0,0.0,57,0.00,,,0.00,WUHU21623XXSP,2013-03-01 23:16:00,
2013-03-01 18:21:00,56.4,41.4,30.24,WNW,292,0.0,0.0,57,0.00,,,0.00,WUHU21623XXSP,2013-03-01 23:21:00,
2013-03-01 18:26:00,56.0,41.1,30.24,WNW,292,0.0,0.0,57,0.00,,,0.00,WUHU21623XXSP,2013-03-01 23:26:00,
2013-03-01 18:31:00,56.0,41.1,30.24,WNW,292,0.0,0.0,57,0.00,,,0.00,WUHU21623XXSP,2013-03-01 23:31:00,
2013-03-01 18:36:00,56.0,41.1,30.24,NNW,337,0.0,0.0,57,0.00,,,0.00,WUHU21623XXSP,2013-03-01 23:36:00,
2013-03-01 18:41:00,55.8,40.9,30.25,NW,315,0.0,0.0,57,0.00,,,0.00,WUHU21623XXSP,2013-03-01 23:41:00,
2013-03-01 18:46:00,55.8,40.9,30.26,NW,315,0.0,0.0,57,0.00,,,0.00,WUHU21623XXSP,2013-03-01 23:46:00,
2013-03-01 18:51:00,55.8,40.9,30.26,West,270,0.0,0.0,57,0.00,,,0.00,WUHU21623XXSP,2013-03-01 23:51:00,
2013-03-01 18:56:00,55.8,40.4,30.27,NNW,337,0.0,0.0,56,0.00,,,0.00,WUHU21623XXSP,2013-03-01 23:56:00,
2013-03-01 19:01:00,55.8,39.5,30.26,NW,315,0.0,0.0,54,0.00,,,0.00,WUHU21623XXSP,2013-03-02 00:01:00,
2013-03-01 19:06:00,55.8,39.5,30.27,NW,315,0.0,0.0,54,0.00,,,0.00,WUHU21623XXSP,2013-03-02 00:06:00,
2013-03-01 19:11:00,55.8,39.5,30.27,NW,315,0.0,0.0,54,0.00,,,0.00,WUHU21623XXSP,2013-03-02 00:11:00,
2013-03-01 19:16:00,55.7,39.4,30.27,North,0,0.0,0.0,54,0.00,,,0.00,WUHU21623XXSP,2013-03-02 00:16:00,
2013-03-01 19:21:00,55.5,38.7,30.27,NW,315,0.0,0.0,53,0.00,,,0.00,WUHU21623XXSP,2013-03-02 00:21:00,
2013-03-01 19:26:00,55.5,39.2,30.26,NW,315,0.0,0.0,54,0.00,,,0.00,WUHU21623XXSP,2013-03-02 00:26:00,
2013-03-01 19:31:00,55.5,39.2,30.26,West,270,0.0,0.0,54,0.00,,,0.00,WUHU21623XXSP,2013-03-02 00:31:00,
2013-03-01 19:36:00,55.5,39.7,30.26,WNW,292,0.0,0.0,55,0.00,,,0.00,WUHU21623XXSP,2013-03-02 00:36:00,
2013-03-01 19:41:00,55.5,39.7,30.26,NNE,22,0.0,0.0,55,0.00,,,0.00,WUHU21623XXSP,2013-03-02 00:41:00,
2013-03-01 19:46:00,55.5,39.7,30.26,West,270,0.0,0.0,55,0.00,,,0.00,WUHU21623XXSP,2013-03-02 00:46:00,
2013-03-01 19:51:00,55.5,40.1,30.26,NW,315,0.0,0.0,56,0.00,,,0.00,WUHU21623XXSP,2013-03-02 00:51:00,
2013-03-01 19:56:00,55.5,40.1,30.26,NW,315,0.0,0.0,56,0.00,,,0.00,WUHU21623XXSP,2013-03-02 00:56:00,
2013-03-01 20:01:00,55.5,40.6,30.26,WNW,292,0.0,0.0,57,0.00,,,0.00,WUHU21623XXSP,2013-03-02 01:01:00,
2013-03-01 20:06:00,55.5,41.1,30.26,North,0,0.0,0.0,58,0.00,,,0.00,WUHU21623XXSP,2013-03-02 01:06:00,
2013-03-01 20:11:00,55.5,41.1,30.25,WNW,292,0.0,0.0,58,0.00,,,0.00,WUHU21623XXSP,2013-03-02 01:11:00,
2013-03-01 20:16:00,55.5,40.6,30.26,NNW,337,0.0,0.0,57,0.00,,,0.00,WUHU21623XXSP,2013-03-02 01:16:00,
2013-03-01 20:21:00,55.5,40.1,30.26,NNW,337,0.0,0.0,56,0.00,,,0.00,WUHU21623XXSP,2013-03-02 01:21:00,
2013-03-01 20:26:00,55.5,39.7,30.26,WNW,292,0.0,0.0,55,0.00,,,0.00,WUHU21623XXSP,2013-03-02 01:26:00,
2013-03-01 20:31:00,55.5,39.2,30.26,WNW,292,0.0,0.0,54,0.00,,,0.00,WUHU21623XXSP,2013-03-02 01:31:00,
2013-03-01 20:36:00,55.5,38.7,30.26,WNW,292,0.0,0.0,53,0.00,,,0.00,WUHU21623XXSP,2013-03-02 01:36:00,
2013-03-01 20:41:00,55.5,38.7,30.27,WNW,292,0.0,0.0,53,0.00,,,0.00,WUHU21623XXSP,2013-03-02 01:41:00,
2013-03-01 20:46:00,55.5,38.7,30.27,NNW,337,0.0,0.0,53,0.00,,,0.00,WUHU21623XXSP,2013-03-02 01:46:00,
2013-03-01 20:51:00,55.5,38.2,30.27,WNW,292,0.0,0.0,52,0.00,,,0.00,WUHU21623XXSP,2013-03-02 01:51:00,
2013-03-01 20:56:00,55.3,38.0,30.26,WNW,292,0.0,0.0,52,0.00,,,0.00,WUHU21623XXSP,2013-03-02 01:56:00,
2013-03-01 21:01:00,55.3,38.0,30.27,WNW,292,0.0,0.0,52,0.00,,,0.00,WUHU21623XXSP,2013-03-02 02:01:00,
2013-03-01 21:07:00,55.3,38.5,30.27,NW,315,0.0,0.0,53,0.00,,,0.00,WUHU21623XXSP,2013-03-02 02:07:00,
2013-03-01 21:11:00,55.3,38.5,30.27,NW,315,0.0,0.0,53,0.00,,,0.00,WUHU21623XXSP,2013-03-02 02:11:00,
2013-03-01 21:17:00,55.3,38.5,30.27,NNW,337,0.0,0.0,53,0.00,,,0.00,WUHU21623XXSP,2013-03-02 02:17:00,
2013-03-01 21:22:00,55.1,38.3,30.27,NNW,337,0.0,0.0,53,0.00,,,0.00,WUHU21623XXSP,2013-03-02 02:22:00,
2013-03-01 21:27:00,55.1,38.3,30.27,WNW,292,0.0,0.0,53,0.00,,,0.00,WUHU21623XXSP,2013-03-02 02:27:00,
2013-03-01 21:32:00,55.1,38.8,30.28,NW,315,0.0,0.0,54,0.00,,,0.00,WUHU21623XXSP,2013-03-02 02:32:00,
2013-03-01 21:37:00,55.1,38.8,30.27,NW,315,0.0,0.0,54,0.00,,,0.00,WUHU21623XXSP,2013-03-02 02:37:00,
2013-03-01 21:42:00,55.1,39.3,30.28,NW,315,0.0,0.0,55,0.00,,,0.00,WUHU21623XXSP,2013-03-02 02:42:00,
2013-03-01 21:47:00,55.1,39.3,30.28,NNW,337,0.0,0.0,55,0.00,,,0.00,WUHU21623XXSP,2013-03-02 02:47:00,
2013-03-01 21:52:00,55.1,39.8,30.28,NW,315,0.0,0.0,56,0.00,,,0.00,WUHU21623XXSP,2013-03-02 02:52:00,
2013-03-01 21:57:00,55.1,39.8,30.28,WNW,292,0.0,0.0,56,0.00,,,0.00,WUHU21623XXSP,2013-03-02 02:57:00,
2013-03-01 22:02:00,54.9,40.0,30.27,WNW,292,0.0,0.0,57,0.00,,,0.00,WUHU21623XXSP,2013-03-02 03:02:00,
2013-03-01 22:07:00,55.1,39.8,30.27,WNW,292,0.0,0.0,56,0.00,,,0.00,WUHU21623XXSP,2013-03-02 03:07:00,
2013-03-01 22:12:00,54.9,39.6,30.27,NW,315,0.0,0.0,56,0.00,,,0.00,WUHU21623XXSP,2013-03-02 03:12:00,
2013-03-01 22:17:00,54.9,39.6,30.27,WNW,292,0.0,0.0,56,0.00,,,0.00,WUHU21623XXSP,2013-03-02 03:17:00,
2013-03-01 22:22:00,54.9,40.0,30.27,NW,315,0.0,0.0,57,0.00,,,0.00,WUHU21623XXSP,2013-03-02 03:22:00,
2013-03-01 22:27:00,54.9,39.6,30.27,NW,315,0.0,0.0,56,0.00,,,0.00,WUHU21623XXSP,2013-03-02 03:27:00,
2013-03-01 22:32:00,54.9,39.6,30.27,West,270,0.0,0.0,56,0.00,,,0.00,WUHU21623XXSP,2013-03-02 03:32:00,
2013-03-01 22:37:00,54.9,39.6,30.28,West,270,0.0,0.0,56,0.00,,,0.00,WUHU21623XXSP,2013-03-02 03:37:00,
2013-03-01 22:42:00,54.9,39.6,30.28,WNW,292,0.0,0.0,56,0.00,,,0.00,WUHU21623XXSP,2013-03-02 03:42:00,
2013-03-01 22:47:00,54.9,39.6,30.28,NNW,337,0.0,0.0,56,0.00,,,0.00,WUHU21623XXSP,2013-03-02 03:47:00,
2013-03-01 22:52:00,54.9,39.6,30.29,WNW,292,0.0,0.0,56,0.00,,,0.00,WUHU21623XXSP,2013-03-02 03:52:00,
2013-03-01 22:57:00,54.9,39.6,30.28,NW,315,0.0,0.0,56,0.00,,,0.00,WUHU21623XXSP,2013-03-02 03:57:00,
2013-03-01 23:02:00,54.9,40.0,30.28,NW,315,0.0,0.0,57,0.00,,,0.00,WUHU21623XXSP,2013-03-02 04:02:00,
2013-03-01 23:07:00,54.9,40.0,30.28,NW,315,0.0,0.0,57,0.00,,,0.00,WUHU21623XXSP,2013-03-02 04:07:00,
2013-03-01 23:12:00,54.9,40.0,30.29,NNW,337,0.0,0.0,57,0.00,,,0.00,WUHU21623XXSP,2013-03-02 04:12:00,
2013-03-01 23:17:00,54.9,40.0,30.28,NW,315,0.0,0.0,57,0.00,,,0.00,WUHU21623XXSP,2013-03-02 04:17:00,
2013-03-01 23:22:00,54.9,40.5,30.28,NW,315,0.0,0.0,58,0.00,,,0.00,WUHU21623XXSP,2013-03-02 04:22:00,
2013-03-01 23:27:00,54.9,40.5,30.28,NNW,337,0.0,0.0,58,0.00,,,0.00,WUHU21623XXSP,2013-03-02 04:27:00,
2013-03-01 23:32:00,54.9,40.0,30.27,NNW,337,0.0,0.0,57,0.00,,,0.00,WUHU21623XXSP,2013-03-02 04:32:00,
2013-03-01 23:37:00,54.9,40.0,30.27,NNW,337,0.0,0.0,57,0.00,,,0.00,WUHU21623XXSP,2013-03-02 04:37:00,
2013-03-01 23:42:00,54.9,39.6,30.27,NNW,337,0.0,0.0,56,0.00,,,0.00,WUHU21623XXSP,2013-03-02 04:42:00,
2013-03-01 23:47:00,54.9,39.6,30.27,NW,315,0.0,0.0,56,0.00,,,0.00,WUHU21623XXSP,2013-03-02 04:47:00,
2013-03-01 23:52:00,54.9,39.1,30.27,WNW,292,0.0,0.0,55,0.00,,,0.00,WUHU21623XXSP,2013-03-02 04:52:00,
2013-03-01 23:57:00,54.9,39.6,30.27,WNW,292,0.0,0.0,56,0.00,,,0.00,WUHU21623XXSP,2013-03-02 04:57:00,